Time,TemperatureF,DewpointF,PressureIn,WindDirection,WindDirectionDegrees,WindSpeedMPH,WindSpeedGustMPH,Humidity,HourlyPrecipIn,Conditions,Clouds,dailyrainin,SoftwareType,DateUTC
2013-04-06 00:05:00,55.6,47.0,30.03,SW,218,3.0,7.0,73,0.00,,,0.00,weatherlink.com 1.10,2013-04-06 05:05:00,
2013-04-06 00:20:00,55.9,47.0,30.03,SSW,210,4.0,8.0,71,0.00,,,0.00,weatherlink.com 1.10,2013-04-06 05:20:00,
2013-04-06 00:35:00,56.4,47.0,30.03,South,180,4.0,10.0,70,0.00,,,0.00,weatherlink.com 1.10,2013-04-06 05:35:00,
2013-04-06 00:50:00,56.2,47.0,30.03,SSW,197,5.0,13.0,71,0.00,,,0.00,weatherlink.com 1.10,2013-04-06 05:50:00,
2013-04-06 01:05:00,55.5,47.0,30.02,ESE,120,4.0,14.0,73,0.00,,,0.00,weatherlink.com 1.10,2013-04-06 06:05:00,
2013-04-06 01:20:00,54.9,47.0,30.02,SSW,195,2.0,9.0,75,0.00,,,0.00,weatherlink.com 1.10,2013-04-06 06:20:00,
2013-04-06 01:35:00,54.2,47.0,30.01,South,188,2.0,9.0,77,0.00,,,0.00,weatherlink.com 1.10,2013-04-06 06:35:00,
2013-04-06 01:51:00,53.6,47.0,30.01,SSW,195,4.0,12.0,78,0.00,,,0.00,weatherlink.com 1.10,2013-04-06 06:51:00,
2013-04-06 02:06:00,53.0,47.0,30.01,SW,218,4.0,9.0,80,0.00,,,0.00,weatherlink.com 1.10,2013-04-06 07:06:00,
2013-04-06 02:21:00,52.3,47.0,30.01,SW,221,7.0,9.0,81,0.00,,,0.00,weatherlink.com 1.10,2013-04-06 07:21:00,
2013-04-06 02:51:00,51.1,46.0,30.00,SW,216,5.0,6.0,84,0.00,,,0.00,weatherlink.com 1.10,2013-04-06 07:51:00,
2013-04-06 03:06:00,50.7,46.0,29.99,SSW,204,4.0,7.0,85,0.00,,,0.00,weatherlink.com 1.10,2013-04-06 08:06:00,
2013-04-06 03:20:00,50.3,46.0,29.98,SSW,197,2.0,5.0,85,0.00,,,0.00,weatherlink.com 1.10,2013-04-06 08:20:00,
2013-04-06 03:52:00,50.3,46.0,29.98,South,191,3.0,9.0,84,0.00,,,0.00,weatherlink.com 1.10,2013-04-06 08:52:00,
2013-04-06 04:06:00,50.5,45.0,29.98,SW,214,8.0,8.0,82,0.00,,,0.00,weatherlink.com 1.10,2013-04-06 09:06:00,
2013-04-06 04:21:00,50.3,45.0,29.98,SE,141,2.0,7.0,81,0.00,,,0.00,weatherlink.com 1.10,2013-04-06 09:21:00,
2013-04-06 04:36:00,50.3,44.0,29.98,WSW,238,5.0,5.0,80,0.00,,,0.00,weatherlink.com 1.10,2013-04-06 09:36:00,
2013-04-06 04:51:00,50.7,44.0,29.97,SSE,148,4.0,10.0,79,0.00,,,0.00,weatherlink.com 1.10,2013-04-06 09:51:00,
2013-04-06 05:06:00,50.4,44.0,29.97,SSW,203,3.0,10.0,80,0.00,,,0.00,weatherlink.com 1.10,2013-04-06 10:06:00,
2013-04-06 05:21:00,50.4,46.0,29.96,SSW,204,3.0,11.0,85,0.00,,,0.00,weatherlink.com 1.10,2013-04-06 10:21:00,
2013-04-06 05:36:00,50.2,47.0,29.96,South,184,4.0,10.0,87,0.00,,,0.00,weatherlink.com 1.10,2013-04-06 10:36:00,
2013-04-06 05:51:00,50.0,47.0,29.96,South,172,3.0,10.0,88,0.00,,,0.00,weatherlink.com 1.10,2013-04-06 10:51:00,
2013-04-06 06:06:00,49.7,47.0,29.96,SW,224,5.0,6.0,89,0.00,,,0.00,weatherlink.com 1.10,2013-04-06 11:06:00,
2013-04-06 06:36:00,49.1,46.0,29.96,South,180,3.0,7.0,90,0.00,,,0.00,weatherlink.com 1.10,2013-04-06 11:36:00,
2013-04-06 06:51:00,48.8,46.0,29.95,SE,134,6.0,6.0,91,0.00,,,0.00,weatherlink.com 1.10,2013-04-06 11:51:00,
2013-04-06 07:06:00,48.5,46.0,29.96,SSE,159,1.0,5.0,91,0.00,,,0.00,weatherlink.com 1.10,2013-04-06 12:06:00,
2013-04-06 07:21:00,48.2,46.0,29.96,SW,225,3.0,4.0,92,0.00,,,0.00,weatherlink.com 1.10,2013-04-06 12:21:00,
2013-04-06 07:36:00,48.4,47.0,29.98,SSW,213,1.0,2.0,93,0.00,,,0.00,weatherlink.com 1.10,2013-04-06 12:36:00,
2013-04-06 07:51:00,48.8,47.0,29.97,SSW,195,1.0,6.0,93,0.00,,,0.00,weatherlink.com 1.10,2013-04-06 12:51:00,
2013-04-06 08:06:00,50.3,48.0,29.97,SW,214,5.0,9.0,91,0.00,,,0.00,weatherlink.com 1.10,2013-04-06 13:06:00,
2013-04-06 08:36:00,52.7,49.0,29.98,SW,214,2.0,8.0,87,0.00,,,0.00,weatherlink.com 1.10,2013-04-06 13:36:00,
2013-04-06 08:52:00,53.8,49.0,29.98,SW,224,4.0,11.0,85,0.00,,,0.00,weatherlink.com 1.10,2013-04-06 13:52:00,
2013-04-06 09:06:00,54.5,50.0,29.98,ESE,123,11.0,14.0,85,0.00,,,0.00,weatherlink.com 1.10,2013-04-06 14:06:00,
2013-04-06 09:21:00,56.1,50.0,29.98,SW,224,10.0,14.0,81,0.00,,,0.00,weatherlink.com 1.10,2013-04-06 14:21:00,
2013-04-06 09:36:00,57.0,51.0,29.98,SE,145,10.0,14.0,80,0.00,,,0.00,weatherlink.com 1.10,2013-04-06 14:36:00,
2013-04-06 09:51:00,58.1,51.0,29.98,South,181,5.0,19.0,78,0.00,,,0.00,weatherlink.com 1.10,2013-04-06 14:51:00,
2013-04-06 10:07:00,60.7,52.0,29.97,SW,224,12.0,13.0,73,0.00,,,0.00,weatherlink.com 1.10,2013-04-06 15:07:00,
2013-04-06 10:22:00,61.3,51.0,29.96,SW,226,6.0,18.0,70,0.00,,,0.00,weatherlink.com 1.10,2013-04-06 15:22:00,
2013-04-06 10:37:00,62.9,52.0,29.96,SE,136,3.0,17.0,67,0.00,,,0.00,weatherlink.com 1.10,2013-04-06 15:37:00,
2013-04-06 10:52:00,64.4,52.0,29.97,SSE,149,13.0,15.0,65,0.00,,,0.00,weatherlink.com 1.10,2013-04-06 15:52:00,
2013-04-06 11:07:00,65.1,50.0,29.97,SSW,198,6.0,20.0,58,0.00,,,0.00,weatherlink.com 1.10,2013-04-06 16:07:00,
2013-04-06 11:22:00,65.8,50.0,29.96,SW,218,5.0,22.0,58,0.00,,,0.00,weatherlink.com 1.10,2013-04-06 16:22:00,
2013-04-06 11:37:00,67.0,51.0,29.95,SSW,210,6.0,22.0,56,0.00,,,0.00,weatherlink.com 1.10,2013-04-06 16:37:00,
2013-04-06 11:52:00,68.8,51.0,29.95,SW,218,7.0,17.0,53,0.00,,,0.00,weatherlink.com 1.10,2013-04-06 16:52:00,
2013-04-06 12:07:00,69.6,51.0,29.95,SSW,211,10.0,16.0,51,0.00,,,0.00,weatherlink.com 1.10,2013-04-06 17:07:00,
2013-04-06 12:22:00,70.0,52.0,29.94,SW,235,5.0,19.0,53,0.00,,,0.00,weatherlink.com 1.10,2013-04-06 17:22:00,
2013-04-06 12:37:00,70.3,53.0,29.94,SW,221,13.0,16.0,54,0.00,,,0.00,weatherlink.com 1.10,2013-04-06 17:37:00,
2013-04-06 12:52:00,70.7,53.0,29.93,SSE,165,7.0,21.0,54,0.00,,,0.00,weatherlink.com 1.10,2013-04-06 17:52:00,
2013-04-06 13:07:00,71.2,54.0,29.93,SSW,201,15.0,17.0,54,0.00,,,0.00,weatherlink.com 1.10,2013-04-06 18:07:00,
2013-04-06 13:22:00,72.5,54.0,29.92,SSE,162,11.0,21.0,53,0.00,,,0.00,weatherlink.com 1.10,2013-04-06 18:22:00,
2013-04-06 13:37:00,72.5,55.0,29.91,SSE,150,7.0,17.0,54,0.00,,,0.00,weatherlink.com 1.10,2013-04-06 18:37:00,
2013-04-06 13:52:00,73.7,55.0,29.90,SSW,208,6.0,17.0,53,0.00,,,0.00,weatherlink.com 1.10,2013-04-06 18:52:00,
2013-04-06 14:07:00,74.6,56.0,29.90,SW,221,8.0,16.0,52,0.00,,,0.00,weatherlink.com 1.10,2013-04-06 19:07:00,
2013-04-06 14:22:00,75.5,56.0,29.89,SW,217,6.0,17.0,51,0.00,,,0.00,weatherlink.com 1.10,2013-04-06 19:22:00,
2013-04-06 14:37:00,75.7,57.0,29.88,SW,230,6.0,18.0,52,0.00,,,0.00,weatherlink.com 1.10,2013-04-06 19:37:00,
2013-04-06 14:52:00,75.4,56.0,29.87,SW,219,12.0,17.0,52,0.00,,,0.00,weatherlink.com 1.10,2013-04-06 19:52:00,
2013-04-06 15:08:00,76.1,57.0,29.86,SSW,213,6.0,18.0,51,0.00,,,0.00,weatherlink.com 1.10,2013-04-06 20:08:00,
2013-04-06 15:22:00,76.1,57.0,29.85,SSW,197,7.0,18.0,52,0.00,,,0.00,weatherlink.com 1.10,2013-04-06 20:22:00,
2013-04-06 15:38:00,76.2,57.0,29.84,SW,225,13.0,17.0,51,0.00,,,0.00,weatherlink.com 1.10,2013-04-06 20:38:00,
2013-04-06 15:53:00,76.7,59.0,29.84,South,179,7.0,14.0,54,0.00,,,0.00,weatherlink.com 1.10,2013-04-06 20:53:00,
2013-04-06 16:08:00,76.6,59.0,29.84,SSW,207,2.0,18.0,54,0.00,,,0.00,weatherlink.com 1.10,2013-04-06 21:08:00,
2013-04-06 16:23:00,76.3,57.0,29.84,East,98,6.0,17.0,52,0.00,,,0.00,weatherlink.com 1.10,2013-04-06 21:23:00,
2013-04-06 16:38:00,76.8,59.0,29.82,West,260,7.0,17.0,54,0.00,,,0.00,weatherlink.com 1.10,2013-04-06 21:38:00,
2013-04-06 16:53:00,77.2,58.0,29.83,WSW,243,9.0,13.0,52,0.00,,,0.00,weatherlink.com 1.10,2013-04-06 21:53:00,
2013-04-06 17:08:00,76.9,58.0,29.83,SSE,162,13.0,14.0,53,0.00,,,0.00,weatherlink.com 1.10,2013-04-06 22:08:00,
2013-04-06 17:23:00,76.9,58.0,29.82,SSW,197,3.0,16.0,53,0.00,,,0.00,weatherlink.com 1.10,2013-04-06 22:23:00,
2013-04-06 17:38:00,76.5,59.0,29.82,SW,226,10.0,16.0,54,0.00,,,0.00,weatherlink.com 1.10,2013-04-06 22:38:00,
2013-04-06 18:08:00,75.8,58.0,29.82,SW,219,3.0,14.0,55,0.00,,,0.00,weatherlink.com 1.10,2013-04-06 23:08:00,
2013-04-06 18:23:00,75.4,58.0,29.81,SW,215,10.0,14.0,55,0.00,,,0.00,weatherlink.com 1.10,2013-04-06 23:23:00,
2013-04-06 18:38:00,74.8,58.0,29.82,SSW,212,6.0,13.0,57,0.00,,,0.00,weatherlink.com 1.10,2013-04-06 23:38:00,
2013-04-06 18:53:00,74.5,59.0,29.82,SSW,200,3.0,12.0,58,0.00,,,0.00,weatherlink.com 1.10,2013-04-06 23:53:00,
2013-04-06 19:08:00,73.7,58.0,29.82,SW,215,4.0,11.0,58,0.00,,,0.00,weatherlink.com 1.10,2013-04-07 00:08:00,
2013-04-06 19:23:00,73.0,59.0,29.82,SW,235,8.0,9.0,61,0.00,,,0.00,weatherlink.com 1.10,2013-04-07 00:23:00,
2013-04-06 19:38:00,71.7,58.0,29.82,SW,233,3.0,9.0,62,0.00,,,0.00,weatherlink.com 1.10,2013-04-07 00:38:00,
2013-04-06 19:53:00,70.6,58.0,29.83,SSE,153,3.0,9.0,65,0.00,,,0.00,weatherlink.com 1.10,2013-04-07 00:53:00,
2013-04-06 20:08:00,69.6,58.0,29.83,SSW,205,2.0,6.0,67,0.00,,,0.00,weatherlink.com 1.10,2013-04-07 01:08:00,
2013-04-06 20:23:00,68.7,58.0,29.82,SSW,205,3.0,6.0,69,0.00,,,0.00,weatherlink.com 1.10,2013-04-07 01:23:00,
2013-04-06 20:38:00,68.0,58.0,29.83,SW,214,2.0,4.0,70,0.00,,,0.00,weatherlink.com 1.10,2013-04-07 01:38:00,
2013-04-06 20:53:00,67.4,58.0,29.83,SSW,201,1.0,6.0,72,0.00,,,0.00,weatherlink.com 1.10,2013-04-07 01:53:00,
2013-04-06 21:08:00,67.1,58.0,29.83,SW,215,2.0,5.0,72,0.00,,,0.00,weatherlink.com 1.10,2013-04-07 02:08:00,
2013-04-06 21:23:00,66.3,58.0,29.83,SSW,204,2.0,5.0,74,0.00,,,0.00,weatherlink.com 1.10,2013-04-07 02:23:00,
2013-04-06 21:38:00,65.4,58.0,29.84,SSW,195,0.0,3.0,76,0.00,,,0.00,weatherlink.com 1.10,2013-04-07 02:38:00,
2013-04-06 21:53:00,64.4,57.0,29.84,South,173,1.0,2.0,77,0.00,,,0.00,weatherlink.com 1.10,2013-04-07 02:53:00,
2013-04-06 22:08:00,62.9,57.0,29.83,South,190,1.0,141.0,80,0.00,,,0.00,weatherlink.com 1.10,2013-04-07 03:08:00,
2013-04-06 22:23:00,62.4,57.0,29.84,SSE,156,2.0,3.0,82,0.00,,,0.00,weatherlink.com 1.10,2013-04-07 03:23:00,
2013-04-06 22:38:00,63.0,57.0,29.84,SW,226,3.0,9.0,81,0.00,,,0.00,weatherlink.com 1.10,2013-04-07 03:38:00,
2013-04-06 22:53:00,63.3,57.0,29.84,South,184,1.0,7.0,81,0.00,,,0.00,weatherlink.com 1.10,2013-04-07 03:53:00,
2013-04-06 23:11:00,62.8,57.0,29.84,SSE,165,4.0,8.0,81,0.00,,,0.00,weatherlink.com 1.10,2013-04-07 04:11:00,
2013-04-06 23:23:00,62.5,57.0,29.85,SSW,203,3.0,8.0,82,0.00,,,0.00,weatherlink.com 1.10,2013-04-07 04:23:00,
2013-04-06 23:38:00,62.4,57.0,29.85,SW,214,3.0,10.0,82,0.00,,,0.00,weatherlink.com 1.10,2013-04-07 04:38:00,
2013-04-06 23:53:00,62.5,57.0,29.84,SSW,205,4.0,9.0,82,0.00,,,0.00,weatherlink.com 1.10,2013-04-07 04:53:00,